• en France
  • Liste des pays
  • À 7 jours
  • Température de l'eau
  • Carte satellitaire
  • Carte météo
  • Widgets météo
  • user-avatar
    Se connecter

    Météo par heure à Saitkulovo

    Ce jour, 22 Septembre, Samedi

    Heure Température Précipitation Vent Pression Humidité
    00:00 +7°C° 0 mm 2 m/s 712 mmHg 94%
    01:00 +6°C° 0 mm 2 m/s 712 mmHg 94%
    02:00 +6°C° 0 mm 2 m/s 713 mmHg 94%
    03:00 +6°C° 0 mm 2 m/s 713 mmHg 94%
    04:00 +6°C° 0 mm 2 m/s 713 mmHg 94%
    05:00 +6°C° 0 mm 2 m/s 713 mmHg 93%
    06:00 +6°C° 0 mm 2 m/s 714 mmHg 92%
    07:00 +7°C° 0 mm 2 m/s 714 mmHg 91%
    08:00 +8°C° 0 mm 2 m/s 715 mmHg 84%
    09:00 +9°C° 0 mm 3 m/s 715 mmHg 78%
    10:00 +11°C° 0 mm 3 m/s 715 mmHg 71%
    11:00 +12°C° 0 mm 3 m/s 715 mmHg 65%
    12:00 +13°C° 0 mm 3 m/s 715 mmHg 60%
    13:00 +14°C° 0 mm 4 m/s 715 mmHg 54%
    14:00 +14°C° 0 mm 4 m/s 715 mmHg 56%
    15:00 +14°C° 0 mm 4 m/s 715 mmHg 58%
    16:00 +14°C° 0 mm 4 m/s 715 mmHg 60%
    17:00 +13°C° 0 mm 3 m/s 715 mmHg 67%
    18:00 +11°C° 0 mm 3 m/s 715 mmHg 75%
    19:00 +10°C° 0 mm 2 m/s 715 mmHg 82%
    20:00 +10°C° 0 mm 2 m/s 715 mmHg 83%
    21:00 +10°C° 0 mm 2 m/s 715 mmHg 84%
    22:00 +9°C° 0 mm 2 m/s 715 mmHg 86%
    23:00 +9°C° 0 mm 2 m/s 715 mmHg 88%

    Demain, 23 Septembre, Dimanche

    Heure Température Précipitation Vent Pression Humidité
    00:00 +9°C° 0 mm 2 m/s 715 mmHg 91%
    01:00 +9°C° 0 mm 2 m/s 715 mmHg 93%
    02:00 +10°C° 0 mm 2 m/s 715 mmHg 93%
    03:00 +10°C° 0 mm 2 m/s 715 mmHg 94%
    04:00 +12°C° 0 mm 2 m/s 716 mmHg 94%
    05:00 +12°C° 0.1 mm 2 m/s 716 mmHg 95%
    06:00 +12°C° 0.1 mm 2 m/s 716 mmHg 95%
    07:00 +12°C° 0.1 mm 1 m/s 716 mmHg 95%
    08:00 +13°C° 0.1 mm 1 m/s 716 mmHg 90%
    09:00 +15°C° 0.1 mm 1 m/s 717 mmHg 85%
    10:00 +16°C° 0.1 mm 1 m/s 717 mmHg 79%
    11:00 +18°C° 0 mm 1 m/s 717 mmHg 74%
    12:00 +19°C° 0 mm 1 m/s 717 mmHg 69%
    13:00 +19°C° 0 mm 1 m/s 717 mmHg 64%
    14:00 +19°C° 0 mm 1 m/s 717 mmHg 66%
    15:00 +19°C° 0 mm 1 m/s 717 mmHg 68%
    16:00 +19°C° 0 mm 1 m/s 717 mmHg 70%
    17:00 +16°C° 0 mm 1 m/s 717 mmHg 75%
    18:00 +15°C° 0 mm 1 m/s 717 mmHg 80%
    19:00 +13°C° 0 mm 1 m/s 716 mmHg 86%
    20:00 +13°C° 0 mm 1 m/s 716 mmHg 87%
    21:00 +12°C° 0 mm 1 m/s 716 mmHg 89%
    22:00 +12°C° 0 mm 1 m/s 716 mmHg 90%
    23:00 +11°C° 0 mm 1 m/s 716 mmHg 91%

    Après-demain, 24 Septembre, Lundi

    Heure Température Précipitation Vent Pression Humidité
    00:00 +11°C° 0 mm 1 m/s 716 mmHg 92%
    01:00 +11°C° 0 mm 1 m/s 716 mmHg 93%
    02:00 +11°C° 0 mm 1 m/s 716 mmHg 93%
    03:00 +10°C° 0 mm 1 m/s 716 mmHg 94%
    04:00 +10°C° 0 mm 1 m/s 716 mmHg 94%
    05:00 +10°C° 0 mm 1 m/s 716 mmHg 95%
    06:00 +11°C° 0 mm 1 m/s 716 mmHg 95%
    07:00 +11°C° 0 mm 1 m/s 716 mmHg 95%
    08:00 +13°C° 0 mm 1 m/s 716 mmHg 90%
    09:00 +15°C° 0 mm 2 m/s 716 mmHg 84%
    10:00 +17°C° 0 mm 2 m/s 716 mmHg 79%
    11:00 +18°C° 0.1 mm 3 m/s 716 mmHg 74%
    12:00 +19°C° 0.1 mm 3 m/s 716 mmHg 69%
    13:00 +20°C° 0.1 mm 3 m/s 716 mmHg 64%
    14:00 +20°C° 0.1 mm 3 m/s 716 mmHg 64%
    15:00 +19°C° 0.1 mm 4 m/s 716 mmHg 65%
    16:00 +19°C° 0.1 mm 4 m/s 715 mmHg 65%
    17:00 +17°C° 0 mm 3 m/s 715 mmHg 72%
    18:00 +16°C° 0 mm 2 m/s 715 mmHg 79%
    19:00 +14°C° 0 mm 2 m/s 715 mmHg 86%
    20:00 +14°C° 0 mm 2 m/s 715 mmHg 87%
    21:00 +13°C° 0 mm 2 m/s 715 mmHg 88%
    22:00 +13°C° 0 mm 2 m/s 715 mmHg 89%
    23:00 +12°C° 0 mm 2 m/s 715 mmHg 88%

    25 Septembre, Mardi

    Heure Température Précipitation Vent Pression Humidité
    00:00 +12°C° 0 mm 2 m/s 714 mmHg 88%
    01:00 +12°C° 0 mm 2 m/s 714 mmHg 88%
    02:00 +10°C° 0 mm 2 m/s 714 mmHg 87%
    03:00 +10°C° 0 mm 2 m/s 714 mmHg 87%
    04:00 +10°C° 0 mm 2 m/s 714 mmHg 86%
    05:00 +10°C° 0 mm 2 m/s 714 mmHg 83%
    06:00 +10°C° 0 mm 2 m/s 714 mmHg 80%
    07:00 +10°C° 0 mm 3 m/s 714 mmHg 78%
    08:00 +13°C° 0 mm 3 m/s 714 mmHg 69%
    09:00 +15°C° 0 mm 4 m/s 714 mmHg 60%
    10:00 +17°C° 0 mm 5 m/s 714 mmHg 51%
    11:00 +19°C° 0 mm 5 m/s 714 mmHg 49%
    12:00 +20°C° 0 mm 6 m/s 714 mmHg 46%
    13:00 +21°C° 0 mm 6 m/s 714 mmHg 43%
    14:00 +21°C° 0 mm 5 m/s 714 mmHg 46%
    15:00 +21°C° 0 mm 5 m/s 714 mmHg 48%
    16:00 +20°C° 0 mm 4 m/s 713 mmHg 50%
    17:00 +19°C° 0 mm 3 m/s 713 mmHg 53%
    18:00 +18°C° 0 mm 3 m/s 713 mmHg 56%
    19:00 +16°C° 0 mm 3 m/s 713 mmHg 59%
    20:00 +16°C° 0.1 mm 3 m/s 713 mmHg 60%
    21:00 +14°C° 0.1 mm 3 m/s 713 mmHg 62%
    22:00 +14°C° 0.1 mm 3 m/s 713 mmHg 63%
    23:00 +14°C° 0 mm 3 m/s 713 mmHg 62%

    26 Septembre, Mercredi

    Heure Température Précipitation Vent Pression Humidité
    00:00 +14°C° 0 mm 3 m/s 712 mmHg 62%
    01:00 +14°C° 0 mm 3 m/s 712 mmHg 61%
    02:00 +14°C° 0 mm 3 m/s 712 mmHg 61%
    03:00 +14°C° 0 mm 4 m/s 712 mmHg 61%
    04:00 +14°C° 0 mm 4 m/s 712 mmHg 61%
    05:00 +14°C° 0 mm 4 m/s 712 mmHg 62%
    06:00 +14°C° 0 mm 4 m/s 712 mmHg 64%
    07:00 +14°C° 0 mm 4 m/s 712 mmHg 65%
    08:00 +15°C° 0 mm 5 m/s 712 mmHg 62%
    09:00 +16°C° 0 mm 5 m/s 712 mmHg 60%
    10:00 +17°C° 0 mm 6 m/s 712 mmHg 57%
    11:00 +16°C° 0.1 mm 5 m/s 713 mmHg 61%
    12:00 +15°C° 0.1 mm 5 m/s 713 mmHg 66%
    13:00 +14°C° 0.1 mm 5 m/s 713 mmHg 71%
    14:00 +13°C° 0.1 mm 5 m/s 713 mmHg 73%
    15:00 +12°C° 0.1 mm 5 m/s 713 mmHg 76%
    16:00 +12°C° 0.1 mm 5 m/s 713 mmHg 78%
    17:00 +11°C° 0 mm 4 m/s 714 mmHg 78%
    18:00 +10°C° 0 mm 4 m/s 714 mmHg 78%
    19:00 +9°C° 0 mm 3 m/s 714 mmHg 78%
    20:00 +9°C° 0 mm 3 m/s 714 mmHg 79%
    21:00 +8°C° 0 mm 3 m/s 715 mmHg 80%
    22:00 +8°C° 0 mm 2 m/s 715 mmHg 81%
    23:00 +8°C° 0.4 mm 2 m/s 715 mmHg 83%

    27 Septembre, Jeudi

    Heure Température Précipitation Vent Pression Humidité
    00:00 +8°C° 0.4 mm 2 m/s 715 mmHg 85%
    01:00 +8°C° 0.4 mm 2 m/s 715 mmHg 87%
    02:00 +7°C° 0.4 mm 2 m/s 715 mmHg 88%
    03:00 +7°C° 0.4 mm 2 m/s 715 mmHg 89%
    04:00 +7°C° 0.4 mm 2 m/s 715 mmHg 90%
    05:00 +7°C° 0.1 mm 2 m/s 715 mmHg 90%
    06:00 +6°C° 0.1 mm 2 m/s 715 mmHg 90%
    07:00 +6°C° 0.1 mm 2 m/s 715 mmHg 89%
    08:00 +7°C° 0 mm 3 m/s 715 mmHg 83%
    09:00 +7°C° 0 mm 4 m/s 715 mmHg 76%
    10:00 +7°C° 0 mm 5 m/s 715 mmHg 70%
    11:00 +8°C° 0 mm 5 m/s 715 mmHg 63%
    12:00 +9°C° 0 mm 5 m/s 715 mmHg 56%
    13:00 +10°C° 0 mm 5 m/s 714 mmHg 48%
    14:00 +9°C° 0 mm 5 m/s 714 mmHg 48%
    15:00 +9°C° 0 mm 5 m/s 714 mmHg 48%
    16:00 +10°C° 0 mm 4 m/s 714 mmHg 48%
    17:00 +8°C° 0 mm 4 m/s 714 mmHg 55%
    18:00 +7°C° 0 mm 3 m/s 713 mmHg 61%
    19:00 +5°C° 0 mm 3 m/s 713 mmHg 68%
    20:00 +4°C° 0 mm 3 m/s 713 mmHg 68%
    21:00 +4°C° 0 mm 3 m/s 713 mmHg 69%
    22:00 +4°C° 0 mm 3 m/s 713 mmHg 69%
    23:00 +4°C° 0 mm 3 m/s 713 mmHg 68%
    Voir plus